Home   Weather   Brantford   Past weeks

Flag for Canada Past Weather in Brantford, Ontario, Canada — Yesterday and Last 2 Weeks

41 °F

Passing clouds.

Feels Like: 39 °F
Forecast: 30 / 47 °F
Wind: 3 mph from Northwest

Location: Hamilton Airport

Current Time: Oct 24, 2016 at 9:28:03 PM

Latest Report: Oct 24, 2016 at 9:00 PM

Visibility: 15 mi

Pressure: 30.26 "Hg

Humidity: 70%

Dew Point: 32 °F

Location of BrantfordLocation

Past Weather in Brantford — Graph


Brantford Temperature Yesterday

Maximum temperature yesterday: 57 °F (at 1:00 PM)
Minimum temperature yesterday: 37 °F (at 2:00 AM)
Average temperature yesterday: 48 °F

High & Low Weather Summary for the Past Weeks

High75 °F (Oct 17, 5:00 PM)100% (Oct 12, 7:00 AM)30.50 "Hg (Oct 12, 7:00 AM)
Low34 °F (Oct 10, 6:00 AM)41% (Oct 10, 3:00 PM)29.59 "Hg (Oct 18, 2:00 PM)
Average54 °F78%30.06 "Hg
* Reported Oct 9 8:00 PM — Oct 24 8:00 PM, Brantford, Weather by CustomWeather, © 2016

Note: Actual official high and low records may vary slightly from our data, if they occured in-between our weather recording intervals... More about our weather records


Brantford Weather History for the Previous 24 Hours

Scroll right to see more
Time TempWeatherWind HumidityBarometerVisibility
8:00 PM
Mon, Oct 24
43 °FPassing clouds.7 mph66%30.24 "Hg15 mi
7:00 PM46 °FPassing clouds.18 mph53%30.22 "Hg15 mi
6:00 PM46 °FPartly sunny.15 mph57%30.20 "Hg15 mi
5:00 PM48 °FScattered clouds.18 mph58%30.18 "Hg15 mi
4:00 PM50 °FScattered clouds.18 mph47%30.16 "Hg15 mi
3:00 PM50 °FPartly sunny.15 mph50%30.15 "Hg15 mi
2:00 PM50 °FPartly sunny.16 mph54%30.14 "Hg15 mi
1:00 PM48 °FBroken clouds.15 mph58%30.14 "Hg15 mi
12:00 PM48 °FBroken clouds.14 mph62%30.13 "Hg15 mi
11:00 AM46 °FBroken clouds.18 mph66%30.11 "Hg15 mi
10:00 AM48 °FBroken clouds.12 mph62%30.09 "Hg15 mi
9:00 AM45 °FPartly sunny.6 mph71%30.08 "Hg15 mi
8:00 AM45 °FPartly sunny.6 mph76%30.05 "Hg15 mi
7:00 AM45 °FPassing clouds.7 mph76%30.02 "Hg15 mi
6:00 AM45 °FPassing clouds.7 mph87%30.01 "Hg15 mi
5:00 AM43 °FPassing clouds.7 mph93%29.97 "Hg15 mi
4:00 AM43 °FPassing clouds.7 mph93%29.95 "Hg15 mi
3:00 AM46 °FPartly cloudy.5 mph82%29.93 "Hg15 mi
2:00 AM46 °FPassing clouds.6 mph82%29.90 "Hg15 mi
1:00 AM48 °FMostly cloudy.7 mph76%29.88 "Hg15 mi
12:00 AM50 °FMostly cloudy.8 mph71%29.85 "Hg15 mi
11:00 PM
Sun, Oct 23
48 °FPartly cloudy.2 mph82%29.84 "Hg15 mi
10:00 PM48 °FPassing clouds.3 mph82%29.84 "Hg15 mi
9:00 PM48 °FPassing clouds.3 mph76%29.85 "Hg15 mi
Weather by CustomWeather, © 2016

See weather overviewHow to use our weather pages